This is the latest recevied weather packets stored in our database for station/object YO2MAS-13. If no packets are shown the sender has not sent any weather packets the latest 10 day(s).
| Time | Temp. | Humidity | Pressure | Rain* | Wind** | Luminosity | Snow |
|---|---|---|---|---|---|---|---|
| 1777936562 | 16.11° C | 90% | 1019.2 hPa | - | - | - | - |
| 1777936109 | 16.11° C | 91% | 1019.2 hPa | - | - | - | - |
| 1777935662 | 16.11° C | 91% | 1019.2 hPa | - | - | - | - |
| 1777934762 | 17.22° C | 83% | 1019.2 hPa | - | - | - | - |
| 1777933862 | 17.22° C | 71% | 1019.2 hPa | - | - | - | - |
| 1777932962 | 17.22° C | 59% | 1019.2 hPa | - | - | - | - |
| 1777932061 | 17.78° C | 56% | 1019.2 hPa | - | - | - | - |
| 1777931161 | 18.33° C | 63% | 1019.2 hPa | - | - | - | - |
| 1777930264 | 18.33° C | 61% | 1019.2 hPa | - | - | - | - |
| 1777929361 | 18.89° C | 76% | 1019.1 hPa | - | - | - | - |
| 1777928500 | 19.44° C | 58% | 1019.1 hPa | - | - | - | - |
| 1777928461 | 19.44° C | 58% | 1019.1 hPa | - | - | - | - |
| 1777927561 | 19.44° C | 54% | 1019.1 hPa | - | - | - | - |
| 1777926661 | 20° C | 44% | 1019.1 hPa | - | - | - | - |
| 1777926433 | 20° C | 42% | 1019 hPa | - | - | - | - |
| 1777926433 | 20° C | 42% | 1019 hPa | - | - | - | - |
| 1777925761 | 20° C | 42% | 1019 hPa | - | - | - | - |
| 1777924861 | 20° C | 42% | 1019 hPa | - | - | - | - |
| 1777923961 | 20° C | 41% | 1019 hPa | - | - | - | - |
| 1777923061 | 20.56° C | 41% | 1019 hPa | - | - | - | - |
| 1777922161 | 21.11° C | 40% | 1019 hPa | - | - | - | - |
| 1777921363 | 22.22° C | 39% | 1018.8 hPa | - | - | - | - |
| 1777921363 | 22.22° C | 40% | 1018.6 hPa | - | - | - | - |
| 1777921261 | 21.11° C | 40% | 1018.9 hPa | - | - | - | - |
| 1777920362 | 22.22° C | 39% | 1018.8 hPa | - | - | - | - |
* Rain since midnight (hover to see other rain measurements)
** Current wind speed in m/s (hover to see current wind gust speed)